Temp
-13 -13 -13 -13 -14 -14 -14 -14 -14 -15 -15 -14 -14 -14 -14 -14 -15 -15 -14 -14 -13 -13 -13 -12 -12 -12 -13 -12 -12 -13 -13 -13 -13 -14 -14 -14 -14 -14 -14 -14 -14 -14 -13
-13 -13 -14 -13 -13 -14 -14 -13 -13 -14 -14 -14 -14 -14 -14 -14 -14 -14 -14 -13 -13 -13 -12 -13 -13 -13 -13 -13 -13 -13 -14 -14 -14 -14 -14 -14 -14 -14 -14 -14 -14 -13 -14
-13 -13 -14 -14 -14 -14 -14 -13 -13 -14 -14 -14 -14 -14 -14 -13 -13 -14 -13 -13 -13 -13 -13 -13 -13 -13 -14 -13 -13 -14 -14 -14 -14 -14 -14 -14 -14 -14 -14 -14 -14 -15 -15
-13 -13 -13 -13 -14 -14 -14 -14 -14 -14 -15 -14 -14 -14 -14 -13 -14 -13 -13 -13 -13 -13 -13 -13 -13 -13 -14 -14 -14 -14 -14 -14 -14 -14 -14 -14 -14 -15 -15 -15 -15 -15 -15
-13 -13 -13 -13 -14 -14 -14 -14 -14 -14 -14 -14 -14 -14 -14 -13 -13 -13 -13 -13 -13 -13 -13 -13 -13 -14 -14 -14 -14 -14 -14 -14 -14 -15 -15 -14 -15 -15 -15 -15 -15 -16 -16
-12 -13 -13 -13 -14 -13 -14 -14 -14 -14 -14 -14 -14 -14 -13 -13 -13 -13 -13 -13 -13 -13 -14 -14 -14 -14 -14 -14 -14 -15 -14 -15 -15 -15 -15 -15 -15 -16 -16 -16 -16 -16 -16
-13 -12 -13 -13 -13 -13 -13 -13 -14 -14 -14 -14 -14 -14 -14 -14 -14 -14 -14 -14 -14 -14 -14 -14 -14 -14 -14 -15 -15 -15 -15 -15 -16 -16 -16 -16 -16 -16 -16 -16 -16 -16 -16
-13 -12 -13 -13 -12 -13 -13 -13 -13 -13 -13 -14 -14 -14 -14 -14 -14 -14 -14 -14 -14 -14 -15 -14 -14 -15 -15 -15 -15 -16 -16 -16 -16 -16 -16 -16 -16 -16 -16 -17 -17 -17 -17
-13 -13 -13 -13 -13 -13 -13 -13 -13 -13 -13 -14 -14 -13 -13 -14 -14 -14 -14 -14 -14 -14 -14 -15 -15 -15 -15 -15 -15 -16 -16 -16 -17 -17 -17 -17 -17 -18 -18 -18 -18 -18 -19
-13 -13 -13 -13 -13 -13 -13 -13 -14 -14 -14 -13 -13 -14 -14 -14 -14 -14 -14 -14 -15 -15 -15 -15 -15 -16 -16 -16 -17 -17 -17 -17 -18 -18 -19 -19 -19 -19 -20 -20 -20 -20 -20
-13 -13 -13 -13 -13 -13 -14 -14 -14 -14 -14 -14 -14 -14 -14 -14 -14 -14 -14 -15 -15 -15 -16 -16 -17 -17 -17 -17 -18 -18 -19 -19 -19 -20 -20 -20 -20 -20 -20 -20 -20 -20 -20
-13 -13 -13 -13 -14 -14 -14 -14 -14 -14 -14 -14 -14 -14 -13 -13 -13 -14 -14 -15 -15 -16 -16 -17 -17 -18 -18 -19 -19 -20 -20 -20 -20 -20 -20 -21 -21 -21 -21 -21 -21 -21 -21
-13 -13 -13 -13 -13 -14 -14 -14 -14 -14 -14 -14 -14 -14 -14 -14 -14 -15 -15 -16 -16 -16 -17 -18 -18 -19 -19 -20 -20 -21 -21 -22 -22 -22 -22 -22 -22 -22 -22 -22 -22 -22 -22
-13 -13 -13 -13 -13 -14 -14 -14 -14 -14 -14 -14 -14 -14 -14 -15 -15 -15 -16 -16 -17 -17 -17 -18 -18 -19 -20 -20 -20 -21 -21 -22 -22 -22 -22 -22 -22 -22 -22 -22 -23 -23 -23
-13 -13 -13 -13 -13 -14 -14 -14 -14 -14 -14 -14 -14 -14 -15 -15 -15 -15 -16 -16 -16 -17 -18 -19 -19 -20 -20 -20 -20 -21 -21 -21 -21 -22 -22 -22 -22 -22 -23 -23 -23 -23 -23
-13 -13 -13 -13 -13 -13 -14 -14 -14 -14 -14 -14 -14 -14 -14 -15 -15 -15 -15 -16 -17 -18 -18 -19 -19 -19 -20 -20 -20 -21 -21 -21 -22 -22 -22 -22 -22 -22 -23 -23 -23 -23 -23
-13 -13 -14 -13 -13 -13 -14 -14 -14 -14 -14 -14 -14 -14 -15 -15 -15 -16 -16 -17 -17 -18 -18 -18 -19 -19 -20 -20 -21 -21 -21 -22 -22 -22 -23 -23 -23 -23 -23 -23 -23 -23 -23
-14 -14 -14 -14 -13 -14 -14 -14 -14 -14 -14 -14 -15 -15 -15 -15 -16 -16 -17 -17 -18 -18 -18 -18 -19 -19 -20 -20 -21 -21 -22 -22 -22 -22 -22 -23 -23 -23 -23 -23 -23 -23 -23
-14 -14 -14 -14 -14 -14 -14 -15 -14 -14 -14 -14 -14 -15 -16 -16 -16 -17 -17 -17 -17 -18 -18 -18 -19 -20 -20 -21 -21 -22 -22 -22 -22 -23 -23 -23 -23 -23 -23 -23 -23 -24 -24
-14 -14 -14 -14 -14 -14 -15 -14 -14 -14 -14 -14 -15 -16 -16 -16 -17 -17 -17 -17 -17 -18 -18 -19 -19 -20 -21 -21 -22 -22 -22 -23 -23 -23 -23 -23 -23 -23 -23 -24 -24 -25 -25
-14 -14 -14 -14 -15 -15 -15 -14 -14 -14 -14 -15 -16 -16 -16 -17 -17 -17 -17 -17 -17 -18 -18 -19 -19 -20 -21 -22 -22 -22 -22 -22 -22 -23 -23 -23 -23 -23 -24 -25 -26 -26 -27
-14 -14 -14 -14 -15 -15 -14 -14 -14 -14 -15 -15 -16 -16 -17 -17 -17 -17 -17 -17 -18 -18 -18 -19 -19 -20 -20 -21 -21 -22 -22 -22 -22 -22 -22 -23 -23 -24 -24 -26 -27 -29 -30
-14 -14 -14 -14 -15 -15 -14 -14 -14 -14 -15 -16 -16 -17 -17 -17 -17 -18 -17 -17 -18 -18 -18 -19 -19 -19 -20 -21 -21 -21 -22 -22 -22 -22 -22 -23 -23 -24 -25 -26 -28 -29 -30
-14 -14 -15 -14 -14 -15 -14 -14 -14 -15 -16 -16 -16 -17 -17 -17 -18 -18 -18 -18 -18 -18 -18 -19 -19 -19 -19 -20 -21 -22 -22 -22 -22 -22 -22 -23 -23 -24 -25 -26 -27 -28 -28
-15 -15 -15 -14 -15 -15 -14 -14 -15 -15 -16 -16 -17 -17 -17 -17 -18 -18 -18 -18 -18 -18 -19 -19 -19 -19 -19 -19 -20 -21 -22 -22 -22 -22 -22 -23 -23 -24 -24 -25 -26 -26 -27
-15 -15 -15 -15 -15 -15 -15 -15 -15 -15 -16 -16 -17 -17 -17 -17 -18 -18 -18 -18 -18 -18 -19 -19 -19 -19 -19 -20 -20 -20 -21 -22 -22 -22 -22 -23 -23 -24 -24 -24 -25 -25 -26
Height
5714 5711 5709 5707 5704 5701 5698 5696 5693 5690 5692 5700 5705 5710 5715 5719 5722 5724 5724 5729 5736 5740 5744 5746 5750 5750 5750 5749 5749 5749 5750 5751 5753 5753 5752 5752 5751 5750 5748 5747 5746 5744 5742
5712 5709 5706 5704 5701 5699 5696 5694 5690 5687 5688 5696 5703 5709 5713 5717 5721 5723 5723 5726 5732 5736 5740 5742 5743 5743 5743 5743 5743 5743 5744 5745 5745 5744 5744 5744 5743 5741 5739 5738 5736 5734 5731
5711 5707 5706 5703 5700 5698 5695 5693 5691 5688 5689 5696 5702 5708 5712 5715 5717 5718 5721 5724 5729 5733 5736 5737 5738 5736 5736 5737 5738 5738 5737 5738 5737 5736 5735 5734 5732 5730 5728 5726 5724 5722 5720
5711 5708 5706 5704 5700 5697 5696 5695 5693 5692 5694 5697 5701 5705 5709 5712 5713 5716 5718 5721 5725 5729 5731 5731 5731 5732 5732 5733 5734 5732 5731 5730 5730 5728 5726 5724 5723 5721 5719 5717 5714 5711 5708
5711 5708 5706 5704 5701 5698 5696 5696 5696 5695 5695 5698 5702 5705 5708 5710 5712 5715 5716 5719 5722 5723 5725 5727 5727 5726 5727 5728 5727 5725 5724 5723 5721 5719 5717 5715 5714 5712 5709 5706 5703 5700 5698
5710 5709 5707 5705 5704 5701 5700 5698 5698 5698 5698 5700 5703 5706 5707 5709 5712 5714 5715 5717 5719 5720 5721 5721 5722 5722 5722 5721 5719 5718 5717 5715 5712 5710 5708 5705 5702 5699 5697 5693 5691 5687 5685
5709 5709 5708 5706 5705 5703 5702 5702 5702 5702 5703 5704 5705 5707 5708 5710 5712 5714 5715 5716 5717 5718 5718 5718 5717 5717 5715 5714 5713 5711 5709 5706 5703 5700 5697 5693 5690 5686 5684 5681 5677 5675 5671
5707 5708 5708 5707 5706 5705 5705 5704 5705 5705 5706 5707 5708 5709 5710 5711 5712 5712 5713 5713 5713 5714 5714 5714 5712 5711 5710 5707 5704 5702 5699 5696 5692 5688 5685 5681 5679 5675 5671 5668 5665 5661 5658
5705 5706 5706 5706 5706 5706 5707 5706 5706 5707 5708 5709 5711 5711 5712 5713 5714 5714 5714 5714 5713 5713 5711 5710 5707 5704 5701 5699 5697 5693 5690 5685 5681 5677 5674 5669 5665 5661 5657 5653 5649 5646 5642
5703 5705 5705 5705 5706 5706 5707 5707 5708 5708 5709 5709 5710 5711 5711 5712 5711 5711 5711 5710 5709 5707 5704 5702 5700 5697 5694 5690 5686 5682 5678 5674 5670 5665 5660 5655 5652 5648 5644 5640 5636 5632 5628
5700 5702 5703 5704 5705 5705 5706 5706 5707 5707 5708 5708 5709 5709 5709 5709 5709 5708 5706 5705 5703 5701 5698 5695 5692 5689 5685 5681 5676 5671 5667 5662 5657 5653 5649 5644 5639 5634 5630 5625 5622 5618 5615
5697 5699 5701 5702 5703 5704 5704 5705 5706 5706 5706 5707 5707 5707 5707 5707 5706 5704 5703 5700 5698 5696 5693 5689 5685 5680 5675 5669 5664 5658 5653 5648 5643 5638 5634 5629 5625 5620 5615 5611 5607 5603 5600
5694 5697 5698 5700 5701 5702 5703 5704 5705 5706 5706 5706 5706 5705 5704 5703 5702 5700 5698 5696 5693 5689 5685 5680 5675 5669 5663 5657 5651 5646 5640 5635 5630 5625 5620 5615 5611 5607 5603 5599 5596 5593 5589
5691 5694 5696 5697 5699 5701 5701 5703 5704 5704 5705 5705 5704 5703 5702 5701 5699 5696 5693 5690 5685 5681 5675 5669 5664 5658 5652 5648 5642 5636 5630 5625 5620 5616 5611 5606 5601 5597 5593 5589 5585 5581 5577
5689 5692 5694 5695 5697 5699 5700 5701 5702 5702 5703 5702 5701 5700 5698 5696 5693 5691 5687 5683 5678 5673 5668 5663 5658 5653 5648 5643 5638 5632 5626 5620 5614 5608 5603 5597 5593 5588 5584 5580 5576 5572 5568
5687 5690 5692 5694 5695 5697 5699 5700 5700 5700 5700 5699 5698 5697 5694 5692 5689 5686 5682 5678 5674 5669 5665 5661 5656 5651 5645 5639 5633 5626 5620 5613 5607 5601 5596 5591 5586 5581 5576 5572 5567 5563 5559
5684 5687 5691 5693 5694 5696 5698 5699 5698 5698 5697 5696 5695 5694 5691 5688 5685 5682 5679 5675 5672 5668 5664 5659 5654 5648 5641 5634 5627 5620 5614 5607 5601 5595 5590 5584 5579 5574 5569 5564 5559 5555 5551
5681 5685 5688 5691 5693 5695 5697 5697 5696 5696 5694 5693 5692 5690 5688 5686 5683 5680 5677 5674 5670 5666 5662 5657 5651 5644 5637 5629 5622 5615 5608 5602 5596 5590 5584 5578 5572 5567 5561 5556 5551 5546 5541
5679 5682 5686 5690 5692 5694 5695 5695 5694 5693 5692 5691 5689 5688 5687 5684 5681 5679 5676 5672 5668 5665 5661 5655 5648 5641 5633 5625 5618 5611 5604 5598 5591 5585 5579 5572 5566 5560 5553 5547 5540 5535 5530
5675 5680 5684 5688 5691 5692 5692 5691 5691 5690 5689 5688 5689 5687 5684 5682 5680 5677 5674 5670 5667 5664 5659 5652 5645 5637 5629 5621 5614 5607 5600 5593 5586 5579 5572 5566 5559 5552 5544 5536 5529 5522 5516
5674 5679 5683 5687 5689 5689 5689 5689 5688 5687 5687 5688 5688 5686 5683 5682 5678 5676 5672 5669 5666 5662 5657 5650 5643 5635 5625 5617 5609 5602 5596 5589 5582 5575 5567 5559 5552 5544 5536 5526 5517 5508 5500
5671 5677 5682 5685 5686 5687 5687 5686 5685 5685 5687 5687 5686 5685 5683 5680 5677 5675 5672 5669 5665 5660 5655 5649 5642 5633 5623 5615 5608 5601 5595 5587 5579 5571 5562 5554 5547 5539 5529 5519 5509 5496 5487
5670 5675 5679 5682 5683 5684 5685 5684 5683 5684 5686 5686 5685 5684 5682 5679 5676 5674 5671 5668 5664 5659 5654 5648 5641 5632 5623 5614 5607 5601 5594 5586 5578 5568 5559 5550 5542 5533 5524 5514 5505 5495 5486
5667 5673 5677 5679 5681 5682 5682 5681 5681 5683 5684 5684 5684 5683 5681 5678 5676 5673 5669 5666 5662 5658 5653 5647 5640 5632 5623 5615 5607 5600 5593 5585 5577 5567 5558 5549 5540 5531 5522 5513 5504 5497 5489
5665 5670 5674 5677 5679 5680 5680 5679 5680 5681 5683 5683 5682 5681 5680 5677 5675 5672 5668 5665 5662 5657 5652 5646 5640 5633 5624 5616 5607 5599 5591 5584 5576 5567 5558 5549 5540 5531 5523 5514 5506 5499 5493
5662 5667 5671 5674 5676 5677 5677 5676 5677 5680 5681 5682 5681 5680 5678 5676 5674 5671 5667 5665 5661 5656 5651 5645 5639 5633 5625 5616 5608 5599 5591 5584 5576 5568 5559 5550 5541 5533 5525 5517 5510 5504 5498
Wind_Speed
13 13 11 11 15 17 18 17 19 21 28 28 25 26 23 21 20 22 27 26 20 25 24 31 27 28 27 25 22 21 19 19 24 28 31 35 38 37 38 39 41 41 40
13 12 10 8 10 12 10 9 7 7 16 25 24 24 22 18 19 23 28 32 38 18 22 21 23 21 20 19 17 20 23 27 31 32 35 35 34 34 36 38 40 41 41
10 10 9 8 7 7 10 3 5 2 12 21 17 16 14 16 16 25 20 15 23 19 19 18 17 16 16 18 19 18 21 26 27 28 30 32 35 38 40 42 43 43 44
7 8 10 11 10 7 6 5 6 7 12 18 17 15 12 8 21 6 8 13 15 19 19 17 14 14 15 20 22 21 23 25 28 32 35 38 41 43 43 44 46 46 45
5 6 9 10 10 6 8 2 2 6 12 15 14 6 7 14 14 13 8 12 13 13 14 14 14 15 18 22 23 25 28 32 36 40 42 44 45 46 47 46 46 46 47
2 4 5 6 9 12 13 9 3 4 7 12 13 12 14 12 10 9 10 12 15 16 16 17 20 22 23 27 31 34 36 39 41 43 43 44 44 45 46 47 47 46 46
3 2 0 3 4 4 7 9 9 11 9 12 12 9 9 12 13 13 14 14 13 15 17 20 22 26 30 33 36 38 39 40 41 43 43 44 44 44 45 47 47 48 48
5 4 3 1 2 2 4 5 7 7 7 8 9 8 7 6 6 7 9 10 13 16 19 22 24 28 31 34 36 39 40 40 42 43 44 44 46 47 48 49 51 52 51
7 5 4 3 2 2 2 1 3 4 4 3 1 1 3 4 6 8 11 13 16 19 22 25 28 31 33 37 39 40 42 43 43 45 46 48 48 49 49 48 47 48 47
8 7 6 5 4 4 3 3 2 2 2 1 2 5 7 9 10 13 15 18 20 23 26 28 31 33 35 37 39 40 41 43 43 45 45 46 47 48 46 46 46 46 47
10 10 9 7 6 6 5 5 4 4 5 5 5 6 8 10 13 15 18 20 23 25 26 29 31 34 36 39 41 42 42 43 44 45 45 44 45 45 45 45 46 46 47
11 11 10 8 7 7 7 7 6 5 5 4 5 7 9 11 13 16 19 22 24 27 30 33 36 38 40 41 41 43 44 44 44 45 44 43 43 45 44 46 46 47 47
13 12 10 9 8 7 6 6 5 4 3 4 5 7 9 12 15 18 22 24 27 30 33 36 39 40 41 42 41 39 36 35 36 38 39 41 42 42 42 42 41 43 42
12 11 10 9 7 7 7 6 5 4 5 6 8 10 12 15 18 21 24 28 32 35 37 38 37 34 29 27 28 29 29 30 30 31 32 33 33 34 35 36 36 36 36
12 11 10 9 8 8 8 8 6 5 6 9 11 13 16 18 21 25 29 31 31 31 29 27 27 28 29 30 30 31 31 31 31 30 29 29 28 28 28 28 28 29 29
13 12 10 9 9 9 8 6 5 6 9 11 14 16 17 21 25 24 24 25 22 21 22 24 26 27 28 28 30 32 32 32 33 33 33 32 33 33 32 31 31 30 30
14 12 11 11 9 7 4 4 6 7 9 10 12 14 18 18 18 19 18 19 20 22 22 24 27 30 32 33 33 32 31 31 32 32 33 33 33 33 33 33 32 32 32
15 13 13 11 8 5 2 1 4 6 6 8 12 15 13 13 14 15 17 19 20 21 24 27 31 33 34 34 34 33 33 32 32 31 31 31 32 33 34 34 34 34 34
17 16 14 10 9 8 4 6 6 5 6 11 10 9 11 13 14 15 17 19 21 22 26 31 35 34 34 36 34 35 34 34 34 34 35 37 37 37 36 37 37 36 34
21 18 15 15 10 4 5 8 5 6 10 8 8 12 13 13 13 16 17 19 22 26 28 31 38 39 38 36 37 34 32 33 34 35 35 35 36 38 40 41 40 40 38
23 20 18 14 8 6 7 6 5 9 6 7 10 14 15 13 14 17 19 22 23 26 29 33 40 43 40 36 32 30 31 32 34 36 37 37 35 37 42 45 42 44 41
26 23 18 12 8 6 9 6 7 5 5 7 8 14 14 14 16 18 20 21 23 27 30 33 39 46 41 33 27 29 34 38 40 38 38 36 35 38 41 40 43 39 33
28 22 16 11 7 5 9 7 4 5 5 4 6 8 13 16 16 18 19 21 23 26 29 32 37 43 42 33 28 32 35 40 44 44 41 39 36 38 39 36 37 37 31
27 21 15 11 4 4 7 6 5 6 4 2 5 6 9 15 16 16 17 20 24 26 28 31 35 38 41 38 33 33 36 38 43 44 43 40 38 38 40 36 31 31 30
26 20 15 10 4 3 6 4 7 5 3 1 4 5 10 13 14 16 18 21 24 26 28 30 33 35 38 40 38 35 36 37 41 43 42 40 39 39 39 40 33 28 27
24 19 15 10 4 2 7 3 8 5 0 2 5 5 9 12 15 17 19 22 25 27 29 29 31 33 35 37 39 39 37 36 39 42 41 40 40 40 39 37 37 34 30
Wind_Direction
331 331 320 319 307 313 287 287 283 273 229 222 212 216 229 237 243 259 231 215 218 202 232 247 266 266 275 267 270 271 262 262 263 268 268 267 271 274 276 277 279 282 282
331 338 333 329 313 320 309 312 300 257 215 207 208 213 224 235 239 247 238 220 213 240 258 247 268 261 256 261 271 268 265 261 263 270 274 270 271 273 273 276 277 277 277
340 5 9 358 329 325 319 329 74 330 179 189 195 201 212 234 259 252 236 219 218 227 244 242 232 252 257 266 266 267 272 272 270 271 274 275 275 276 278 281 282 283 284
353 18 10 356 352 331 313 296 116 123 168 181 194 185 190 210 231 228 204 196 212 228 231 234 247 247 255 261 269 270 270 268 275 276 275 276 277 280 282 282 284 285 286
357 8 11 9 24 20 1 22 182 197 157 171 171 172 195 214 241 249 216 212 227 242 249 247 254 258 261 260 267 272 273 273 272 272 274 277 279 280 282 284 286 288 288
351 10 17 39 72 62 56 70 82 112 160 165 180 186 203 208 190 193 213 224 233 230 234 240 252 253 263 268 271 274 275 277 279 280 281 281 282 284 287 288 288 287 286
265 275 22 54 56 92 65 59 81 91 153 168 176 189 188 187 193 206 209 214 222 231 239 246 255 261 268 274 276 277 278 280 281 283 286 288 289 289 288 287 286 285 285
234 236 233 172 84 43 75 84 79 84 104 127 142 154 171 193 214 228 238 251 256 263 268 274 277 279 279 281 282 283 287 290 290 291 291 289 287 286 285 284 284 282 282
234 234 231 220 196 188 168 94 71 78 75 54 72 193 224 243 256 263 268 276 280 279 279 277 278 281 286 288 289 290 290 289 289 288 287 285 284 284 284 283 283 283 284
234 232 230 235 245 236 220 210 207 219 209 205 282 290 285 281 280 278 278 278 279 282 286 290 292 292 291 291 291 291 291 289 287 287 287 288 288 288 287 286 285 285 284
224 229 231 229 237 242 245 244 241 238 235 236 245 259 275 287 291 295 297 298 297 295 293 290 292 296 297 297 297 296 295 295 294 294 294 293 290 287 286 286 287 287 286
217 221 223 224 228 229 229 226 228 230 236 251 277 303 311 309 305 300 297 297 298 300 301 302 302 303 305 305 304 302 300 297 296 294 291 288 288 287 286 287 287 288 289
209 211 210 209 223 226 221 222 212 236 271 299 294 292 298 304 310 311 309 308 306 306 308 309 309 309 306 305 306 305 303 301 296 298 294 293 292 293 294 294 291 289 289
204 204 204 202 211 222 207 209 224 242 270 285 295 305 316 322 321 321 320 321 321 320 319 319 320 324 330 333 331 331 329 323 317 312 309 305 301 299 298 297 296 295 295
202 202 200 198 196 205 206 215 231 264 294 304 311 324 331 329 327 327 327 327 329 332 335 340 344 339 332 328 328 327 325 323 322 321 320 318 315 312 311 310 308 305 302
200 203 201 194 187 203 221 241 271 296 310 316 325 332 331 328 330 334 338 342 352 359 360 356 349 342 336 333 330 328 328 326 324 321 319 316 313 311 309 307 305 304 302
198 202 198 190 189 200 233 282 301 316 324 328 327 327 335 342 345 349 4 17 21 17 10 1 351 343 340 338 336 336 335 333 330 326 322 320 317 314 311 308 305 302 298
193 196 192 189 185 182 153 6 340 332 330 327 339 354 1 360 11 21 31 30 24 16 8 359 350 346 344 338 336 336 337 336 334 332 327 322 319 317 314 309 306 302 299
186 185 179 174 161 150 90 24 10 3 345 351 22 24 26 27 31 38 34 27 18 7 358 354 352 349 342 340 337 335 335 333 330 326 324 323 322 323 320 316 312 305 301
181 170 164 159 150 114 40 12 0 349 4 54 55 43 38 43 43 42 32 22 12 6 2 357 354 352 348 341 342 342 339 336 334 332 331 329 327 323 320 317 313 308 302
169 167 162 156 133 78 31 13 2 4 61 81 70 49 48 48 42 36 30 24 15 7 3 1 356 355 355 352 352 353 354 351 347 342 338 334 334 331 328 327 326 320 312
167 165 162 151 122 76 31 16 8 50 91 88 61 46 42 37 38 32 26 15 8 5 4 2 0 0 2 2 6 6 5 3 358 352 350 343 340 338 337 336 339 340 336
166 162 158 148 120 69 23 7 33 105 108 78 36 38 33 31 26 19 16 8 4 5 3 3 4 4 6 4 358 358 357 359 -0 359 357 357 353 350 350 348 352 354 354
167 164 159 151 125 56 17 16 105 120 109 68 14 22 18 20 15 11 9 7 5 3 2 3 5 7 9 7 360 354 353 356 359 0 1 3 3 1 0 1 359 0 358
169 164 161 157 144 79 17 26 130 132 121 79 13 344 4 11 15 13 12 8 3 1 2 3 3 7 9 11 7 0 357 359 2 4 4 7 9 10 9 10 10 8 13
168 166 167 162 143 64 19 37 149 169 251 329 356 1 5 16 16 15 12 7 2 3 2 2 1 3 7 10 12 11 7 5 6 7 8 9 11 12 14 14 15 17 17